Oberpfaffenhofen, Germany

9:57 AM CEST on April 22, 2018 (GMT +0200)
Oberpfaffenhofen

Weather History for EDMO - July, 2013

Change the Weather History Date:

Monday, July 1, 2013

  Actual Average Record
Temperature  
Mean Temperature 61 °F -  
Max Temperature 71 °F 67 °F 82 °F (2015)
Min Temperature 51 °F 60 °F 44 °F (2014)
Degree Days  
Heating Degree Days 4    
Growing Degree Days 11 (Base 50)    
Moisture  
Dew Point 49 °F    
Average Humidity 55    
Maximum Humidity 94    
Minimum Humidity 41    
Precipitation  
Precipitation 0.00 in - - ()
Sea Level Pressure  
Sea Level Pressure 30.11 in    
Wind  
Wind Speed 3 mph ()    
Max Wind Speed 7 mph    
Max Gust Speed -    
Visibility 6.2 miles    
Events      
Averages and records for this station are not official NWS values.
T = Trace of Precipitation, MM = Missing Value Source: Averaged Metar Reports

Daily Weather History Graph

Daily Weather History Graph

Search for Another Location

Airport or City:

Astronomy

Jul. 01, 2013 Rise Set
Actual Time 5:19 AM CEST 9:18 PM CEST
Civil Twilight 4:38 AM CEST 9:59 PM CEST
Nautical Twilight 3:40 AM CEST 10:56 PM CEST
Astronomical Twilight 2:06 AM CEST 12:28 AM CEST
Moon 12:59 AM CEST (7/1) 2:59 PM CEST (7/1)
Length of Visible Light 17h 21m
Length of Day
15h 59m
Last Quarter, 38% of the Moon is Illuminated
Jul 1
Last Quarter
Jul 8
New
Jul 16
First Quarter
Jul 22
Full
Jul 29
Last Quarter

Hourly Weather History & Observations

Time (CEST) Temp. Dew Point Humidity Pressure Visibility Wind Dir Wind Speed Gust Speed Precip Events Conditions
6:50 AM 51.8 °F 50.0 °F 94% 30.15 in - SW 2.3 mph - N/A   Clear
7:20 AM 51.8 °F 50.0 °F 94% 30.15 in - WSW 3.5 mph - N/A   Clear
7:50 AM 55.4 °F 50.0 °F 82% 30.15 in - Variable 1.2 mph - N/A   Clear
8:20 AM 60.8 °F 53.6 °F 77% 30.15 in - Calm Calm - N/A   Clear
8:50 AM 60.8 °F 51.8 °F 72% 30.15 in - South 4.6 mph - N/A   Clear
9:20 AM 62.6 °F 50.0 °F 63% 30.15 in - SSE 5.8 mph - N/A   Clear
9:50 AM 64.4 °F 48.2 °F 56% 30.15 in - SSE 4.6 mph - N/A   Clear
10:20 AM 66.2 °F 48.2 °F 52% 30.15 in - Variable 3.5 mph - N/A   Clear
10:50 AM 66.2 °F 48.2 °F 52% 30.12 in - Variable 2.3 mph - N/A   Clear
11:20 AM 66.2 °F 48.2 °F 52% 30.12 in - Variable 3.5 mph - N/A   Clear
11:50 AM 66.2 °F 46.4 °F 49% 30.12 in 6.2 mi Variable 3.5 mph - N/A   Scattered Clouds
12:20 PM 68.0 °F 48.2 °F 49% 30.12 in 6.2 mi Variable 2.3 mph - N/A   Partly Cloudy
12:50 PM 68.0 °F 48.2 °F 49% 30.12 in - Variable 3.5 mph - N/A   Clear
1:20 PM 68.0 °F 51.8 °F 56% 30.12 in - NW 6.9 mph - N/A   Clear
1:50 PM 69.8 °F 48.2 °F 46% 30.12 in - Variable 2.3 mph - N/A   Clear
2:20 PM 69.8 °F 50.0 °F 49% 30.09 in - Variable 2.3 mph - N/A   Clear
2:50 PM 69.8 °F 48.2 °F 46% 30.09 in - NE 4.6 mph - N/A   Clear
3:20 PM 71.6 °F 48.2 °F 43% 30.09 in 6.2 mi Variable 3.5 mph - N/A   Partly Cloudy
3:50 PM 71.6 °F 50.0 °F 46% 30.09 in 6.2 mi Variable 4.6 mph - N/A   Partly Cloudy
4:20 PM 71.6 °F 50.0 °F 46% 30.09 in 6.2 mi NNW 6.9 mph - N/A   Partly Cloudy
4:50 PM 71.6 °F 50.0 °F 46% 30.06 in 6.2 mi NNW 5.8 mph - N/A   Partly Cloudy
5:20 PM 71.6 °F 46.4 °F 41% 30.06 in 6.2 mi Variable 5.8 mph - N/A   Partly Cloudy
5:50 PM 71.6 °F 50.0 °F 46% 30.06 in 6.2 mi ENE 5.8 mph - N/A   Partly Cloudy
6:20 PM 71.6 °F 48.2 °F 43% 30.06 in 6.2 mi Variable 3.5 mph - N/A   Partly Cloudy
6:50 PM 71.6 °F 46.4 °F 41% 30.06 in - Variable 2.3 mph - N/A   Clear
7:20 PM 71.6 °F 48.2 °F 43% 30.06 in - NNW 4.6 mph - N/A   Clear
7:50 PM 69.8 °F 50.0 °F 49% 30.06 in - NNE 5.8 mph - N/A   Clear